FW7989 Weather Reports


time (UTC)temp
F
wind
direction
speed
knots
gust
knots
rain 1hr
in
rain 24hr
in
rain mn
in
humidity
%
barometer
mb
20260902070110 61 174 0.0 3.5 0.00 0.00 0.00 88 1018.9
20260902065601 61 155 0.9 4.3 0.00 0.00 0.00 88 1018.9
20260902065058 61 150 1.7 4.3 0.00 0.00 0.00 88 1018.8
20260902064609 61 186 1.7 5.2 0.00 0.00 0.00 88 1018.6
20260902064102 61 192 2.6 5.2 0.00 0.00 0.00 88 1018.7
20260902063558 61 191 2.6 5.2 0.00 0.00 0.00 88 1018.8
20260902063109 61 202 1.7 5.2 0.00 0.00 0.00 88 1019.0
20260902062558 61 169 1.7 5.2 0.00 0.00 0.00 88 1018.8
20260902062057 61 180 1.7 5.2 0.00 0.00 0.00 88 1018.7
20260902061608 61 158 1.7 5.2 0.00 0.00 0.00 87 1018.6
20260902061057 61 178 1.7 5.2 0.00 0.00 0.00 87 1018.8
20260902060556 61 178 2.6 6.1 0.00 0.00 0.00 87 1018.5
20260902060127 60 184 1.7 6.1 0.00 0.00 0.00 87 1018.5
20260902055557 60 155 1.7 6.1 0.00 0.00 0.00 87 1018.4
20260902055100 60 179 2.6 6.1 0.00 0.00 0.00 87 1018.4
20260902054604 60 151 1.7 5.2 0.00 0.00 0.00 87 1018.4
20260902054057 60 125 0.9 4.3 0.00 0.00 0.00 87 1018.7
20260902053557 60 144 1.7 4.3 0.00 0.00 0.00 87 1018.7
20260902053103 60 161 1.7 4.3 0.00 0.00 0.00 86 1018.7
20260902052559 60 0 0.9 4.3 0.00 0.00 0.00 86 1018.7
20260902052057 60 170 1.7 4.3 0.00 0.00 0.00 86 1018.8
20260902051609 60 123 1.7 4.3 0.00 0.00 0.00 86 1018.8
20260902051101 60 138 1.7 6.1 0.00 0.00 0.00 86 1018.8
20260902050557 60 178 1.7 6.1 0.00 0.00 0.00 86 1018.7
20260902050105 60 155 2.6 6.1 0.00 0.00 0.00 85 1018.7
20260902045557 60 103 2.6 6.1 0.00 0.00 0.00 85 1018.7
20260902045057 60 113 3.5 6.1 0.00 0.00 0.00 85 1018.8
20260902044609 60 121 1.7 7.0 0.00 0.00 0.00 85 1018.8
20260902044058 60 167 2.6 7.0 0.00 0.00 0.00 85 1018.8
20260902043557 60 165 2.6 4.3 0.00 0.00 0.00 85 1018.8
20260902043104 61 128 1.7 4.3 0.00 0.00 0.00 85 1018.8
20260902042557 61 190 1.7 4.3 0.00 0.00 0.00 85 1018.8
20260902042058 61 119 0.9 4.3 0.00 0.00 0.00 84 1018.9
20260902041611 61 143 0.9 5.2 0.00 0.00 0.00 84 1018.9
20260902041057 61 159 1.7 5.2 0.00 0.00 0.00 84 1018.8
20260902040558 61 180 1.7 5.2 0.00 0.00 0.00 84 1019.0
20260902040104 61 145 1.7 6.1 0.00 0.00 0.00 84 1019.0
20260902035558 61 209 1.7 6.1 0.00 0.00 0.00 85 1019.2
20260902035059 60 183 1.7 5.2 0.00 0.00 0.00 85 1019.2
20260902034604 60 166 1.7 5.2 0.00 0.00 0.00 85 1019.2
20260902034100 60 177 1.7 4.3 0.00 0.00 0.00 85 1019.2
20260902033557 60 184 1.7 4.3 0.00 0.00 0.00 85 1019.3
20260902033107 60 0 1.7 4.3 0.00 0.00 0.00 85 1019.3
20260902032603 60 101 1.7 4.3 0.00 0.00 0.00 85 1019.2
20260902032057 60 146 1.7 4.3 0.00 0.00 0.00 85 1019.2
20260902031609 60 150 1.7 3.5 0.00 0.00 0.00 85 1019.2
20260902031058 60 142 0.9 4.3 0.00 0.00 0.00 85 1019.3
20260902030601 60 104 0.9 4.3 0.00 0.00 0.00 85 1019.4
20260902030109 60 143 0.9 4.3 0.00 0.00 0.00 85 1019.5
20260902025558 60 137 0.9 4.3 0.00 0.00 0.00 85 1019.4
20260902025058 60 123 0.9 5.2 0.00 0.00 0.00 85 1019.6
20260902024607 60 134 0.9 6.1 0.00 0.00 0.00 85 1019.5
20260902024059 60 202 2.6 7.0 0.00 0.00 0.00 85 1019.6
20260902023559 60 175 2.6 7.0 0.00 0.00 0.00 85 1019.5
20260902023110 60 169 2.6 5.2 0.00 0.00 0.00 85 1019.7
20260902022602 60 167 2.6 6.1 0.00 0.00 0.00 86 1019.7
20260902022101 60 211 2.6 6.1 0.00 0.00 0.00 86 1019.6
20260902021604 60 164 1.7 4.3 0.00 0.00 0.00 85 1019.8
20260902021103 60 0 1.7 4.3 0.00 0.00 0.00 85 1019.9
20260902020558 60 117 0.0 1.7 0.00 0.00 0.00 85 1019.9
20260902020115 60 0 0.0 4.3 0.00 0.00 0.00 85 1019.9
20260902015559 60 144 0.9 5.2 0.00 0.00 0.00 85 1019.9
20260902015100 60 174 0.9 5.2 0.00 0.00 0.00 85 1020.1
20260902014602 60 167 1.7 4.3 0.00 0.00 0.00 85 1020.1
20260902014100 60 176 1.7 4.3 0.00 0.00 0.00 85 1020.2
20260902013559 60 159 1.7 4.3 0.00 0.00 0.00 85 1020.1
20260902013103 60 177 0.9 3.5 0.00 0.00 0.00 85 1020.1
20260902012558 60 182 0.9 3.5 0.00 0.00 0.00 85 1020.0
20260902012058 60 180 1.7 3.5 0.00 0.00 0.00 85 1020.1
20260902011601 60 199 0.9 3.5 0.00 0.00 0.00 84 1020.2
20260902011100 60 192 0.9 2.6 0.00 0.00 0.00 84 1020.3
20260902010559 60 0 0.9 3.5 0.00 0.00 0.00 84 1020.2
20260902005558 61 190 1.7 4.3 0.00 0.00 0.00 83 1020.2
20260902005103 61 180 0.9 4.3 0.00 0.00 0.00 83 1020.3
20260902004605 61 151 1.7 4.3 0.00 0.00 0.00 83 1020.2
20260902004059 61 176 0.9 3.5 0.00 0.00 0.00 83 1020.3
20260902003559 61 198 0.9 4.3 0.00 0.00 0.00 83 1020.2
20260902003106 61 188 1.7 5.2 0.00 0.00 0.00 83 1020.3
20260902002601 61 197 1.7 6.1 0.00 0.00 0.00 83 1020.4
20260902002058 61 208 2.6 7.0 0.00 0.00 0.00 84 1020.5
20260902001605 61 201 2.6 7.0 0.00 0.00 0.00 84 1020.5
20260902001059 61 225 2.6 5.2 0.00 0.00 0.00 84 1020.6
20260902000559 61 211 2.6 5.2 0.00 0.00 0.00 84 1020.6
20260902000121 60 211 0.9 3.5 0.00 0.00 0.00 84 1020.6
20260901235601 60 0 0.9 3.5 0.00 0.00 0.00 83 1020.4
20260901235100 61 171 0.9 3.5 0.00 0.00 0.00 83 1020.6
20260901234605 61 178 0.9 3.5 0.00 0.00 0.00 83 1020.7
20260901234102 61 131 1.7 3.5 0.00 0.00 0.00 82 1020.8
20260901233559 61 138 0.9 2.6 0.00 0.00 0.00 82 1020.8
20260901233106 61 152 0.9 2.6 0.00 0.00 0.00 81 1020.6
20260901232600 61 165 0.9 2.6 0.00 0.00 0.00 81 1020.6
20260901232059 61 164 0.9 2.6 0.00 0.00 0.00 81 1020.7
20260901231603 61 164 0.0 2.6 0.00 0.00 0.00 80 1020.7
20260901231058 61 146 0.9 3.5 0.00 0.00 0.00 80 1020.6
20260901230559 61 134 0.9 3.5 0.00 0.00 0.00 80 1020.6
20260901230115 61 134 0.0 2.6 0.00 0.00 0.00 80 1020.6
20260901225559 61 0 0.0 0.0 0.00 0.00 0.00 80 1020.7
20260901225100 61 0 0.0 0.0 0.00 0.00 0.00 80 1020.6
20260901224606 61 0 0.0 0.0 0.00 0.00 0.00 80 1020.6
20260901224059 61 0 0.0 0.0 0.00 0.00 0.00 80 1020.7
20260901223559 61 0 0.0 0.0 0.00 0.00 0.00 80 1020.5
20260901223116 61 0 0.0 0.0 0.00 0.00 0.00 80 1020.5
20260901222559 61 0 0.0 0.0 0.00 0.00 0.00 79 1020.6
20260901222100 61 0 0.0 0.0 0.00 0.00 0.00 79 1020.6
20260901221612 61 0 0.0 0.0 0.00 0.00 0.00 79 1020.6
20260901221059 62 0 0.0 0.0 0.00 0.00 0.00 79 1020.6
20260901220559 62 0 0.0 0.0 0.00 0.00 0.00 79 1020.5
20260901220134 62 0 0.0 1.7 0.00 0.00 0.00 78 1020.5
20260901215559 62 0 0.0 1.7 0.00 0.00 0.00 78 1020.5
20260901215102 62 192 0.0 1.7 0.00 0.00 0.00 78 1020.7
20260901214604 62 192 0.9 2.6 0.00 0.00 0.00 77 1020.7
20260901214059 62 0 0.9 2.6 0.00 0.00 0.00 77 1020.7
20260901213559 62 205 0.9 3.5 0.00 0.00 0.00 77 1020.7
20260901213128 62 171 0.9 3.5 0.00 0.00 0.00 77 1020.7
20260901212559 62 200 0.9 3.5 0.00 0.00 0.00 77 1020.7
20260901212059 62 205 0.9 3.5 0.00 0.00 0.00 77 1020.8
20260901211605 62 195 0.9 3.5 0.00 0.00 0.00 77 1020.8
20260901211059 62 197 0.9 3.5 0.00 0.00 0.00 77 1020.7
20260901210558 62 192 0.9 3.5 0.00 0.00 0.00 77 1020.7
20260901210108 62 190 0.9 3.5 0.00 0.00 0.00 77 1020.7
20260901205559 62 188 0.9 3.5 0.00 0.00 0.00 77 1020.8
20260901205100 62 186 0.9 3.5 0.00 0.00 0.00 76 1020.7
20260901204619 62 200 0.9 3.5 0.00 0.00 0.00 76 1020.7
20260901204059 62 223 1.7 3.5 0.00 0.00 0.00 77 1020.8
20260901203601 62 231 0.9 3.5 0.00 0.00 0.00 77 1020.9
20260901203110 62 0 0.9 2.6 0.00 0.00 0.00 77 1020.8
20260901202601 62 234 0.0 1.7 0.00 0.00 0.00 76 1020.7
20260901202103 63 234 0.9 2.6 0.00 0.00 0.00 76 1020.7
20260901201610 63 234 0.0 3.5 0.00 0.00 0.00 75 1020.7
20260901201100 63 211 0.9 4.3 0.00 0.00 0.00 75 1020.6
20260901200559 64 240 1.7 6.1 0.00 0.00 0.00 75 1020.7
20260901200104 64 284 2.6 6.1 0.00 0.00 0.00 75 1020.6
20260901195601 64 289 1.7 6.1 0.00 0.00 0.00 74 1020.7
20260901195059 64 275 2.6 6.1 0.00 0.00 0.00 74 1020.6
20260901194603 64 304 1.7 6.1 0.00 0.00 0.00 74 1020.7
20260901194101 64 237 1.7 7.0 0.00 0.00 0.00 73 1020.7
20260901193559 64 252 2.6 7.0 0.00 0.00 0.00 73 1020.7
20260901193119 64 287 2.6 8.7 0.00 0.00 0.00 74 1020.8
20260901192601 64 302 4.3 8.7 0.00 0.00 0.00 74 1020.6
20260901192110 64 273 3.5 8.7 0.00 0.00 0.00 74 1020.5
20260901191601 64 294 4.3 7.8 0.00 0.00 0.00 75 1020.4
20260901191059 64 360 3.5 7.8 0.00 0.00 0.00 76 1020.4
20260901190556 64 292 4.3 7.8 0.00 0.00 0.00 77 1020.4
20260901190106 64 360 3.5 7.8 0.00 0.00 0.00 77 1020.4
20260901185559 64 300 2.6 7.8 0.00 0.00 0.00 77 1020.3
20260901185100 64 309 3.5 7.8 0.00 0.00 0.00 77 1020.3
20260901184605 64 279 4.3 8.7 0.00 0.00 0.00 77 1020.3
20260901184059 64 294 3.5 9.6 0.00 0.00 0.00 76 1020.3
20260901183600 64 284 4.3 9.6 0.00 0.00 0.00 76 1020.3
20260901183105 65 294 3.5 7.8 0.00 0.00 0.00 76 1020.3
20260901182602 65 321 3.5 8.7 0.00 0.00 0.00 76 1020.5
20260901182102 65 292 4.3 9.6 0.00 0.00 0.00 75 1020.3
20260901181605 65 318 4.3 12.2 0.00 0.00 0.00 76 1020.4
20260901181058 65 315 6.1 12.2 0.00 0.00 0.00 76 1020.4
20260901180559 65 360 6.1 14.8 0.00 0.00 0.00 76 1020.5
20260901180105 65 292 6.1 14.8 0.00 0.00 0.00 75 1020.3
20260901175603 65 294 8.7 14.8 0.00 0.00 0.00 75 1020.4
20260901175059 65 296 7.8 13.9 0.00 0.00 0.00 76 1020.5
20260901174603 65 317 6.1 13.9 0.00 0.00 0.00 76 1020.5
20260901174100 66 291 7.8 13.9 0.00 0.00 0.00 75 1020.6
20260901173558 66 295 7.0 13.9 0.00 0.00 0.00 74 1020.5
20260901173106 66 305 8.7 13.9 0.00 0.00 0.00 73 1020.6
20260901172558 66 319 7.8 13.9 0.00 0.00 0.00 72 1020.6
20260901172059 66 277 7.0 13.0 0.00 0.00 0.00 72 1020.5
20260901171605 66 283 5.2 12.2 0.00 0.00 0.00 71 1020.5
20260901171100 67 329 6.1 13.9 0.00 0.00 0.00 70 1020.5
20260901170559 67 322 7.0 13.9 0.00 0.00 0.00 69 1020.6
20260901170110 67 294 5.2 13.9 0.00 0.00 0.00 68 1020.6
20260901165559 67 314 5.2 12.2 0.00 0.00 0.00 67 1020.4
20260901165101 67 333 4.3 16.5 0.00 0.00 0.00 69 1020.3
20260901164632 68 323 7.0 16.5 0.00 0.00 0.00 68 1020.3
20260901164102 68 321 9.6 15.6 0.00 0.00 0.00 68 1020.4
20260901163559 68 325 7.8 12.2 0.00 0.00 0.00 67 1020.5
20260901163104 68 360 7.0 13.0 0.00 0.00 0.00 69 1020.4
20260901162601 68 345 7.8 13.0 0.00 0.00 0.00 71 1020.4
20260901162056 68 296 5.2 12.2 0.00 0.00 0.00 72 1020.5
20260901161603 67 306 7.0 13.0 0.00 0.00 0.00 70 1020.5
20260901161101 67 303 7.8 13.0 0.00 0.00 0.00 70 1020.4
20260901160601 67 286 7.8 13.0 0.00 0.00 0.00 71 1020.5
20260901160107 67 313 7.0 13.0 0.00 0.00 0.00 70 1020.6
20260901155559 68 294 7.8 13.0 0.00 0.00 0.00 70 1020.6
20260901155059 68 360 7.8 13.0 0.00 0.00 0.00 70 1020.7
20260901154605 68 300 4.3 11.3 0.00 0.00 0.00 70 1020.6
20260901154058 68 298 7.8 11.3 0.00 0.00 0.00 68 1020.7
20260901153600 68 296 5.2 9.6 0.00 0.00 0.00 69 1020.8
20260901153106 69 274 5.2 10.4 0.00 0.00 0.00 68 1020.7
20260901152559 70 299 5.2 13.0 0.00 0.00 0.00 66 1020.6
20260901152059 70 276 6.1 13.0 0.00 0.00 0.00 65 1020.5
20260901151617 71 266 6.1 12.2 0.00 0.00 0.00 64 1020.6
20260901151059 70 291 3.5 12.2 0.00 0.00 0.00 68 1020.6
20260901150600 70 274 6.1 12.2 0.00 0.00 0.00 67 1020.6
20260901145559 68 284 5.2 12.2 0.00 0.00 0.00 69 1020.6
20260901145100 68 285 5.2 12.2 0.00 0.00 0.00 69 1020.7
20260901144608 68 275 7.0 12.2 0.00 0.00 0.00 67 1020.8
20260901144058 68 298 7.0 11.3 0.00 0.00 0.00 65 1020.7
20260901143559 68 310 7.0 10.4 0.00 0.00 0.00 64 1020.8
20260901143106 68 317 6.1 10.4 0.00 0.00 0.00 64 1020.8
20260901142556 68 269 6.1 11.3 0.00 0.00 0.00 66 1020.8
20260901142059 68 300 6.1 11.3 0.00 0.00 0.00 67 1020.7
20260901141607 69 344 7.8 11.3 0.00 0.00 0.00 67 1020.8
20260901141100 69 323 7.0 10.4 0.00 0.00 0.00 67 1020.7
20260901140558 69 288 5.2 13.0 0.00 0.00 0.00 66 1020.7
20260901140107 69 360 7.0 13.0 0.00 0.00 0.00 65 1020.9
20260901135559 69 342 7.0 11.3 0.00 0.00 0.00 65 1020.9
20260901135059 70 302 5.2 12.2 0.00 0.00 0.00 63 1020.8
20260901134623 70 280 3.5 13.9 0.00 0.00 0.00 62 1020.9
20260901134059 70 312 6.1 13.9 0.00 0.00 0.00 64 1020.9
20260901133558 71 288 7.0 13.9 0.00 0.00 0.00 62 1021.0
20260901133106 71 304 6.1 13.0 0.00 0.00 0.00 64 1021.0
20260901132557 71 274 6.1 11.3 0.00 0.00 0.00 65 1020.9
20260901132059 71 296 6.1 10.4 0.00 0.00 0.00 63 1021.0
20260901131601 71 297 7.0 12.2 0.00 0.00 0.00 62 1021.0
20260901131100 71 296 6.1 12.2 0.00 0.00 0.00 60 1020.8
20260901130559 71 315 6.1 12.2 0.00 0.00 0.00 63 1020.9
20260901130107 70 297 7.8 12.2 0.00 0.00 0.00 64 1021.0
20260901125602 71 250 6.1 11.3 0.00 0.00 0.00 64 1021.0
20260901125101 71 319 6.1 11.3 0.00 0.00 0.00 63 1021.1
20260901124608 71 301 2.6 10.4 0.00 0.00 0.00 64 1021.0
20260901124059 72 226 6.1 10.4 0.00 0.00 0.00 61 1021.1
20260901123559 72 292 4.3 10.4 0.00 0.00 0.00 61 1021.0
20260901123102 72 265 3.5 10.4 0.00 0.00 0.00 61 1021.0
20260901122558 72 300 4.3 9.6 0.00 0.00 0.00 63 1021.1
20260901122058 71 255 5.2 10.4 0.00 0.00 0.00 59 1021.0
20260901121559 71 236 6.1 10.4 0.00 0.00 0.00 60 1021.0
20260901121059 71 301 3.5 8.7 0.00 0.00 0.00 62 1020.8
20260901120602 71 346 5.2 9.6 0.00 0.00 0.00 61 1020.9
20260901120109 70 298 4.3 9.6 0.00 0.00 0.00 64 1021.0
20260901115558 71 316 5.2 11.3 0.00 0.00 0.00 61 1021.1
20260901115059 71 294 5.2 12.2 0.00 0.00 0.00 64 1021.1
20260901114602 70 5 5.2 12.2 0.00 0.00 0.00 65 1021.1
20260901114059 70 290 5.2 10.4 0.00 0.00 0.00 66 1021.1
20260901113559 69 304 5.2 9.6 0.00 0.00 0.00 67 1021.2
20260901113102 68 315 5.2 9.6 0.00 0.00 0.00 67 1021.2
20260901112558 68 274 4.3 11.3 0.00 0.00 0.00 65 1021.3
20260901112056 68 276 4.3 11.3 0.00 0.00 0.00 67 1021.2
20260901111603 68 271 4.3 12.2 0.00 0.00 0.00 66 1021.3
20260901111058 68 217 4.3 12.2 0.00 0.00 0.00 68 1021.3
20260901110555 68 298 5.2 9.6 0.00 0.00 0.00 68 1021.3
20260901110104 68 231 4.3 12.2 0.00 0.00 0.00 66 1021.4
20260901105559 68 274 4.3 12.2 0.00 0.00 0.00 67 1021.2
20260901105104 68 228 4.3 11.3 0.00 0.00 0.00 67 1021.2
20260901104603 68 284 6.1 11.3 0.00 0.00 0.00 66 1021.3
20260901104059 68 230 5.2 11.3 0.00 0.00 0.00 66 1021.2
20260901103559 68 287 4.3 10.4 0.00 0.00 0.00 68 1021.2
20260901103100 68 264 4.3 10.4 0.00 0.00 0.00 70 1021.3
20260901102559 68 234 4.3 10.4 0.00 0.00 0.00 70 1021.1
20260901102059 67 301 7.0 10.4 0.00 0.00 0.00 68 1021.4
20260901101610 67 253 5.2 10.4 0.00 0.00 0.00 69 1021.4
20260901101058 67 300 4.3 8.7 0.00 0.00 0.00 70 1021.4
20260901100558 67 258 2.6 7.0 0.00 0.00 0.00 69 1021.3
20260901100107 67 282 3.5 7.0 0.00 0.00 0.00 71 1021.4
20260901095558 67 216 1.7 7.0 0.00 0.00 0.00 70 1021.4
20260901095057 67 247 2.6 7.0 0.00 0.00 0.00 70 1021.3
20260901094609 67 223 2.6 7.0 0.00 0.00 0.00 70 1021.4
20260901094102 67 300 1.7 8.7 0.00 0.00 0.00 69 1021.5
20260901093559 67 277 3.5 8.7 0.00 0.00 0.00 69 1021.5
20260901093103 67 215 3.5 7.8 0.00 0.00 0.00 72 1021.5
20260901092556 67 277 3.5 8.7 0.00 0.00 0.00 72 1021.4
20260901092102 67 290 4.3 8.7 0.00 0.00 0.00 73 1021.4
20260901091604 66 221 2.6 8.7 0.00 0.00 0.00 74 1021.5
20260901091058 66 247 1.7 6.1 0.00 0.00 0.00 75 1021.5
20260901090558 66 191 2.6 6.1 0.00 0.00 0.00 75 1021.4
20260901090108 66 198 2.6 7.0 0.00 0.00 0.00 75 1021.3
20260901085601 65 167 1.7 7.0 0.00 0.00 0.00 75 1021.2
20260901085101 65 149 2.6 6.1 0.00 0.00 0.00 76 1021.4
20260901084611 65 194 1.7 6.1 0.00 0.00 0.00 77 1021.4
20260901084101 65 158 3.5 6.1 0.00 0.00 0.00 76 1021.3
20260901083601 64 169 1.7 6.1 0.00 0.00 0.00 79 1021.3
20260901083114 64 190 1.7 6.1 0.00 0.00 0.00 78 1021.3
20260901082558 63 192 2.6 7.0 0.00 0.00 0.00 78 1021.4
20260901082101 63 175 2.6 7.0 0.00 0.00 0.00 79 1021.4
20260901081615 62 132 3.5 7.0 0.00 0.00 0.00 80 1021.4
20260901081100 62 136 2.6 6.1 0.00 0.00 0.00 81 1021.4
20260901080600 61 140 2.6 6.1 0.00 0.00 0.00 82 1021.3
20260901080118 61 129 0.9 6.1 0.00 0.00 0.00 82 1021.4
20260901075601 60 153 1.7 6.1 0.00 0.00 0.00 83 1021.4
20260901075059 59 148 3.5 6.1 0.00 0.00 0.00 84 1021.3
20260901074610 58 115 0.9 5.2 0.00 0.00 0.00 85 1021.3
20260901074100 58 111 1.7 5.2 0.00 0.00 0.00 85 1021.2
20260901073558 58 98 1.7 5.2 0.00 0.00 0.00 85 1021.2
20260901073109 58 65 2.6 5.2 0.00 0.00 0.00 85 1021.3
20260901072600 58 148 1.7 5.2 0.00 0.00 0.00 86 1021.2
20260901072103 58 142 1.7 7.0 0.00 0.00 0.00 85 1021.1
20260901071614 58 139 2.6 7.0 0.00 0.00 0.00 85 1021.3
20260901071059 58 147 2.6 7.0 0.00 0.00 0.00 85 1021.1
20260901070558 58 188 2.6 7.0 0.00 0.00 0.00 85 1021.1